Location: Kirchberg
(47.4114°N, 9.0398°E)
Time: 03:48:56
(UTC+00:00)

Cosmos 2219 Rocket - Pass Details

Date: 03 March 2021
Orbit: 826 x 848 km, 71.0° (Epoch: 17 April)

Event Time Altitude Azimuth Distance (km) Brightness Sun altitude
Rises 19:23:28 0° 198° (SSW) 3,353 5.3 -22.8°
Reaches altitude 10° 19:25:53 10° 196° (SSW) 2,425 4.6 -23.2°
Maximum altitude 19:31:25 71° 113° (ESE) 878 2.0 -24.1°
Drops below altitude 10° 19:37:00 10° 31° (NNE) 2,452 4.5 -25.0°
Sets 19:39:28 0° 29° (NNE) 3,393 5.2 -25.4°
